| time (UTC) | temp F | wind direction | speed MPH | gust MPH | rain 1hr in | rain 24hr in | rain mn in | humidity % | barometer mb |
| 20260505011020 | 69 | 360 | 2.0 | 3.0 | 0.02 | 0.02 | 0.02 | 57 | 1000.2 |
| 20260505010540 | 69 | 360 | 1.0 | 3.0 | 0.02 | 0.02 | 0.02 | 54 | 1000.4 |
| 20260505010158 | 69 | 360 | 0.0 | 5.0 | 0.02 | 0.02 | 0.02 | 58 | 1000.4 |
| 20260505005539 | 69 | 360 | 1.0 | 5.0 | 0.02 | 0.02 | 0.02 | 57 | 1000.5 |
| 20260505005032 | 69 | 360 | 0.0 | 3.0 | 0.02 | 0.02 | 0.02 | 54 | 1000.6 |
| 20260505004642 | 70 | 360 | 1.0 | 4.0 | 0.02 | 0.02 | 0.02 | 56 | 1000.7 |
| 20260505004027 | 70 | 360 | 0.0 | 10.0 | 0.02 | 0.02 | 0.02 | 57 | 1000.9 |
| 20260505003535 | 71 | 360 | 4.0 | 11.0 | 0.02 | 0.02 | 0.02 | 56 | 1000.7 |
| 20260505003139 | 72 | 360 | 6.0 | 18.0 | 0.02 | 0.02 | 0.02 | 52 | 1000.5 |
| 20260505002540 | 71 | 360 | 12.0 | 24.0 | 0.01 | 0.01 | 0.01 | 47 | 1000.8 |
| 20260505002044 | 72 | 360 | 9.0 | 32.0 | 0.01 | 0.01 | 0.01 | 48 | 1000.9 |
| 20260505001636 | 73 | 360 | 17.0 | 32.0 | 0.00 | 0.00 | 0.00 | 46 | 1001.1 |
| 20260505001019 | 76 | 360 | 20.0 | 32.0 | 0.00 | 0.00 | 0.00 | 39 | 1001.0 |
| 20260505000529 | 77 | 360 | 22.0 | 30.0 | 0.00 | 0.00 | 0.00 | 32 | 1000.8 |
| 20260505000158 | 79 | 360 | 14.0 | 26.0 | 0.00 | 0.00 | 0.00 | 30 | 1000.7 |
| 20260504235542 | 79 | 360 | 10.0 | 29.0 | 0.00 | 0.00 | 0.00 | 30 | 1000.6 |
| 20260504235037 | 79 | 360 | 10.0 | 19.0 | 0.00 | 0.00 | 0.00 | 31 | 1000.7 |
| 20260504234647 | 78 | 360 | 2.0 | 5.0 | 0.00 | 0.00 | 0.00 | 33 | 1000.6 |
| 20260504234032 | 79 | 360 | 1.0 | 4.0 | 0.00 | 0.00 | 0.00 | 33 | 1000.4 |
| 20260504233539 | 79 | 360 | 1.0 | 6.0 | 0.00 | 0.00 | 0.00 | 32 | 1000.3 |
| 20260504233151 | 79 | 360 | 3.0 | 6.0 | 0.00 | 0.00 | 0.00 | 32 | 1000.3 |
| 20260504232530 | 79 | 360 | 3.0 | 10.0 | 0.00 | 0.00 | 0.00 | 31 | 1000.3 |
| 20260504232032 | 79 | 360 | 6.0 | 12.0 | 0.00 | 0.00 | 0.00 | 31 | 1000.3 |
| 20260504231639 | 79 | 169 | 8.0 | 15.0 | 0.00 | 0.00 | 0.00 | 31 | 1000.4 |
| 20260504231032 | 79 | 152 | 7.0 | 12.0 | 0.00 | 0.00 | 0.00 | 32 | 1000.6 |
| 20260504230542 | 79 | 148 | 8.0 | 15.0 | 0.00 | 0.00 | 0.00 | 31 | 1000.5 |
| 20260504230153 | 79 | 138 | 9.0 | 15.0 | 0.00 | 0.00 | 0.00 | 31 | 1000.7 |
| 20260504225540 | 79 | 142 | 9.0 | 17.0 | 0.00 | 0.00 | 0.00 | 31 | 1000.7 |
| 20260504225035 | 80 | 131 | 12.0 | 23.0 | 0.00 | 0.00 | 0.00 | 31 | 1001.1 |
| 20260504224646 | 80 | 131 | 16.0 | 23.0 | 0.00 | 0.00 | 0.00 | 31 | 1000.9 |
| 20260504224032 | 81 | 147 | 15.0 | 21.0 | 0.00 | 0.00 | 0.00 | 29 | 1001.1 |
| 20260504223520 | 82 | 178 | 15.0 | 27.0 | 0.00 | 0.00 | 0.00 | 29 | 1001.1 |
| 20260504223143 | 83 | 145 | 19.0 | 27.0 | 0.00 | 0.00 | 0.00 | 28 | 1001.1 |
| 20260504222535 | 85 | 138 | 14.0 | 22.0 | 0.00 | 0.00 | 0.00 | 29 | 1001.3 |
| 20260504222024 | 85 | 118 | 9.0 | 17.0 | 0.00 | 0.00 | 0.00 | 29 | 1000.9 |
| 20260504221635 | 84 | 121 | 11.0 | 17.0 | 0.00 | 0.00 | 0.00 | 29 | 1001.1 |
| 20260504221043 | 84 | 111 | 10.0 | 14.0 | 0.00 | 0.00 | 0.00 | 27 | 1001.2 |
| 20260504220527 | 84 | 132 | 10.0 | 16.0 | 0.00 | 0.00 | 0.00 | 28 | 1001.1 |
| 20260504220145 | 84 | 138 | 11.0 | 15.0 | 0.00 | 0.00 | 0.00 | 27 | 1001.1 |
| 20260504215522 | 85 | 121 | 11.0 | 15.0 | 0.00 | 0.00 | 0.00 | 25 | 1001.0 |
| 20260504215032 | 85 | 117 | 7.0 | 15.0 | 0.00 | 0.00 | 0.00 | 23 | 1001.1 |
| 20260504214616 | 86 | 105 | 9.0 | 15.0 | 0.00 | 0.00 | 0.00 | 23 | 1001.1 |
| 20260504214033 | 85 | 98 | 8.0 | 16.0 | 0.00 | 0.00 | 0.00 | 23 | 1001.2 |
| 20260504213543 | 86 | 128 | 8.0 | 17.0 | 0.00 | 0.00 | 0.00 | 24 | 1001.2 |
| 20260504213131 | 86 | 117 | 11.0 | 17.0 | 0.00 | 0.00 | 0.00 | 25 | 1001.3 |
| 20260504212543 | 86 | 94 | 10.0 | 19.0 | 0.00 | 0.00 | 0.00 | 25 | 1001.4 |
| 20260504212026 | 86 | 105 | 9.0 | 14.0 | 0.00 | 0.00 | 0.00 | 24 | 1001.4 |
| 20260504211639 | 86 | 132 | 9.0 | 13.0 | 0.00 | 0.00 | 0.00 | 24 | 1001.5 |
| 20260504211043 | 86 | 126 | 9.0 | 18.0 | 0.00 | 0.00 | 0.00 | 25 | 1001.6 |
| 20260504210536 | 87 | 93 | 13.0 | 18.0 | 0.00 | 0.00 | 0.00 | 24 | 1001.5 |
| 20260504210157 | 87 | 66 | 5.0 | 14.0 | 0.00 | 0.00 | 0.00 | 23 | 1001.5 |
| 20260504205520 | 87 | 78 | 8.0 | 14.0 | 0.00 | 0.00 | 0.00 | 22 | 1001.7 |
| 20260504205038 | 87 | 50 | 4.0 | 14.0 | 0.00 | 0.00 | 0.00 | 21 | 1001.8 |
| 20260504204632 | 87 | 103 | 6.0 | 12.0 | 0.00 | 0.00 | 0.00 | 20 | 1001.8 |
| 20260504204041 | 87 | 115 | 8.0 | 13.0 | 0.00 | 0.00 | 0.00 | 23 | 1001.8 |
| 20260504203522 | 87 | 123 | 6.0 | 14.0 | 0.00 | 0.00 | 0.00 | 21 | 1001.9 |
| 20260504203137 | 87 | 72 | 10.0 | 14.0 | 0.00 | 0.00 | 0.00 | 21 | 1002.0 |
| 20260504202517 | 86 | 88 | 8.0 | 18.0 | 0.00 | 0.00 | 0.00 | 22 | 1002.0 |
| 20260504202039 | 86 | 68 | 4.0 | 18.0 | 0.00 | 0.00 | 0.00 | 21 | 1002.1 |
| 20260504201632 | 86 | 117 | 7.0 | 16.0 | 0.00 | 0.00 | 0.00 | 21 | 1002.1 |
| 20260504201022 | 86 | 117 | 5.0 | 14.0 | 0.00 | 0.00 | 0.00 | 21 | 1002.2 |
| 20260504200533 | 86 | 169 | 9.0 | 15.0 | 0.00 | 0.00 | 0.00 | 21 | 1002.3 |
| 20260504200158 | 86 | 136 | 7.0 | 16.0 | 0.00 | 0.00 | 0.00 | 22 | 1002.5 |
| 20260504195528 | 86 | 92 | 10.0 | 16.0 | 0.00 | 0.00 | 0.00 | 20 | 1002.6 |
| 20260504195020 | 86 | 126 | 9.0 | 16.0 | 0.00 | 0.00 | 0.00 | 21 | 1002.4 |
| 20260504194640 | 87 | 144 | 11.0 | 16.0 | 0.00 | 0.00 | 0.00 | 20 | 1002.4 |
| 20260504194018 | 87 | 97 | 3.0 | 17.0 | 0.00 | 0.00 | 0.00 | 20 | 1002.4 |
| 20260504193519 | 87 | 95 | 13.0 | 17.0 | 0.00 | 0.00 | 0.00 | 19 | 1002.8 |
| 20260504193149 | 86 | 103 | 9.0 | 14.0 | 0.00 | 0.00 | 0.00 | 20 | 1002.7 |
| 20260504192523 | 86 | 42 | 7.0 | 14.0 | 0.00 | 0.00 | 0.00 | 19 | 1002.6 |
| 20260504192018 | 86 | 78 | 5.0 | 17.0 | 0.00 | 0.00 | 0.00 | 19 | 1002.6 |
| 20260504191648 | 86 | 168 | 5.0 | 17.0 | 0.00 | 0.00 | 0.00 | 19 | 1002.8 |
| 20260504191034 | 86 | 67 | 9.0 | 14.0 | 0.00 | 0.00 | 0.00 | 19 | 1002.8 |
| 20260504190532 | 86 | 94 | 8.0 | 15.0 | 0.00 | 0.00 | 0.00 | 20 | 1002.8 |
| 20260504190133 | 86 | 81 | 8.0 | 15.0 | 0.00 | 0.00 | 0.00 | 21 | 1002.8 |
| 20260504185524 | 85 | 95 | 6.0 | 15.0 | 0.00 | 0.00 | 0.00 | 19 | 1003.0 |
| 20260504185022 | 85 | 97 | 9.0 | 15.0 | 0.00 | 0.00 | 0.00 | 20 | 1003.1 |
| 20260504184647 | 85 | 85 | 5.0 | 15.0 | 0.00 | 0.00 | 0.00 | 20 | 1003.0 |
| 20260504184033 | 85 | 76 | 7.0 | 15.0 | 0.00 | 0.00 | 0.00 | 21 | 1003.1 |
| 20260504183544 | 85 | 84 | 7.0 | 14.0 | 0.00 | 0.00 | 0.00 | 21 | 1002.9 |
| 20260504183150 | 85 | 52 | 4.0 | 11.0 | 0.00 | 0.00 | 0.00 | 21 | 1002.9 |
| 20260504182527 | 85 | 92 | 6.0 | 14.0 | 0.00 | 0.00 | 0.00 | 20 | 1003.1 |
| 20260504182021 | 85 | 100 | 8.0 | 15.0 | 0.00 | 0.00 | 0.00 | 19 | 1003.1 |
| 20260504181603 | 85 | 84 | 8.0 | 16.0 | 0.00 | 0.00 | 0.00 | 22 | 1003.1 |
| 20260504181041 | 85 | 71 | 3.0 | 16.0 | 0.00 | 0.00 | 0.00 | 22 | 1003.3 |
| 20260504180533 | 85 | 80 | 6.0 | 15.0 | 0.00 | 0.00 | 0.00 | 22 | 1003.3 |
| 20260504180152 | 85 | 95 | 7.0 | 13.0 | 0.00 | 0.00 | 0.00 | 21 | 1003.4 |
| 20260504175538 | 85 | 355 | 4.0 | 14.0 | 0.00 | 0.00 | 0.00 | 21 | 1003.5 |
| 20260504175020 | 85 | 66 | 8.0 | 14.0 | 0.00 | 0.00 | 0.00 | 21 | 1003.4 |
| 20260504174640 | 84 | 78 | 3.0 | 10.0 | 0.00 | 0.00 | 0.00 | 23 | 1003.5 |
| 20260504174026 | 83 | 28 | 3.0 | 9.0 | 0.00 | 0.00 | 0.00 | 23 | 1003.5 |
| 20260504173542 | 83 | 36 | 3.0 | 15.0 | 0.00 | 0.00 | 0.00 | 24 | 1003.5 |
| 20260504173148 | 83 | 76 | 4.0 | 15.0 | 0.00 | 0.00 | 0.00 | 23 | 1003.5 |
| 20260504172522 | 83 | 84 | 3.0 | 12.0 | 0.00 | 0.00 | 0.00 | 24 | 1003.5 |
| 20260504172032 | 83 | 78 | 7.0 | 12.0 | 0.00 | 0.00 | 0.00 | 25 | 1003.6 |
| 20260504171657 | 83 | 346 | 4.0 | 10.0 | 0.00 | 0.00 | 0.00 | 26 | 1003.6 |
| 20260504171033 | 83 | 76 | 3.0 | 11.0 | 0.00 | 0.00 | 0.00 | 26 | 1003.6 |
| 20260504170524 | 82 | 93 | 4.0 | 11.0 | 0.00 | 0.00 | 0.00 | 28 | 1003.6 |
| 20260504170207 | 82 | 69 | 4.0 | 11.0 | 0.00 | 0.00 | 0.00 | 28 | 1003.7 |
| 20260504160141 | 77 | 315 | 2.0 | 5.0 | 0.00 | 0.00 | 0.00 | 34 | 1003.0 |
| 20260504151038 | 71 | 263 | 7.0 | 11.0 | 0.00 | 0.00 | 0.00 | 46 | 1003.0 |
| 20260504150521 | 70 | 273 | 7.0 | 11.0 | 0.00 | 0.00 | 0.00 | 45 | 1003.0 |
| 20260504150216 | 70 | 259 | 7.0 | 12.0 | 0.00 | 0.00 | 0.00 | 45 | 1003.0 |
| 20260504141023 | 65 | 287 | 9.0 | 13.0 | 0.00 | 0.00 | 0.00 | 52 | 1003.2 |
| 20260504140547 | 64 | 247 | 9.0 | 13.0 | 0.00 | 0.00 | 0.00 | 53 | 1003.3 |
| 20260504140231 | 63 | 250 | 9.0 | 12.0 | 0.00 | 0.00 | 0.00 | 54 | 1003.3 |
| 20260504130527 | 56 | 255 | 7.0 | 10.0 | 0.00 | 0.00 | 0.00 | 65 | 1002.8 |
| 20260504130210 | 56 | 267 | 6.0 | 10.0 | 0.00 | 0.00 | 0.00 | 65 | 1002.9 |
| 20260504120135 | 52 | 206 | 3.0 | 5.0 | 0.00 | 0.00 | 0.00 | 68 | 1002.8 |
| 20260504110536 | 55 | 360 | 4.0 | 8.0 | 0.00 | 0.00 | 0.00 | 64 | 1002.7 |
| 20260504110159 | 55 | 360 | 4.0 | 8.0 | 0.00 | 0.00 | 0.00 | 64 | 1002.8 |
| 20260504100530 | 54 | 360 | 3.0 | 5.0 | 0.00 | 0.00 | 0.00 | 63 | 1003.3 |
| 20260504100212 | 54 | 360 | 2.0 | 5.0 | 0.00 | 0.00 | 0.00 | 63 | 1003.6 |
| 20260504090141 | 58 | 360 | 5.0 | 9.0 | 0.00 | 0.00 | 0.00 | 55 | 1003.9 |
| 20260504081621 | 61 | 360 | 5.0 | 9.0 | 0.00 | 0.00 | 0.00 | 51 | 1004.2 |
| 20260504081018 | 61 | 360 | 5.0 | 13.0 | 0.00 | 0.00 | 0.00 | 50 | 1004.3 |
| 20260504080531 | 61 | 360 | 6.0 | 13.0 | 0.00 | 0.00 | 0.00 | 50 | 1004.4 |
| 20260504080158 | 62 | 360 | 6.0 | 11.0 | 0.00 | 0.00 | 0.00 | 49 | 1004.3 |
| 20260504070209 | 64 | 360 | 10.0 | 14.0 | 0.00 | 0.00 | 0.00 | 44 | 1004.6 |
| 20260504060217 | 67 | 360 | 13.0 | 19.0 | 0.00 | 0.00 | 0.00 | 39 | 1004.9 |
| 20260504050539 | 66 | 248 | 12.0 | 18.0 | 0.00 | 0.00 | 0.00 | 39 | 1005.1 |
| 20260504050209 | 66 | 244 | 10.0 | 15.0 | 0.00 | 0.00 | 0.00 | 39 | 1005.1 |
| 20260504045546 | 67 | 233 | 11.0 | 16.0 | 0.00 | 0.00 | 0.00 | 38 | 1005.1 |
| 20260504045031 | 67 | 234 | 10.0 | 18.0 | 0.00 | 0.00 | 0.00 | 38 | 1005.2 |
| 20260504044715 | 67 | 214 | 10.0 | 18.0 | 0.00 | 0.00 | 0.00 | 38 | 1005.2 |
| 20260504044042 | 67 | 238 | 11.0 | 17.0 | 0.00 | 0.00 | 0.00 | 37 | 1005.2 |
| 20260504043527 | 67 | 196 | 10.0 | 17.0 | 0.00 | 0.00 | 0.00 | 37 | 1005.3 |
| 20260504043157 | 67 | 207 | 10.0 | 17.0 | 0.00 | 0.00 | 0.00 | 37 | 1005.2 |
| 20260504042530 | 68 | 360 | 11.0 | 15.0 | 0.00 | 0.00 | 0.00 | 36 | 1005.2 |
| 20260504042030 | 68 | 201 | 9.0 | 16.0 | 0.00 | 0.00 | 0.00 | 36 | 1005.3 |
| 20260504041709 | 68 | 157 | 10.0 | 16.0 | 0.00 | 0.00 | 0.00 | 35 | 1005.3 |
| 20260504041019 | 68 | 180 | 9.0 | 15.0 | 0.00 | 0.00 | 0.00 | 35 | 1005.4 |
| 20260504040536 | 69 | 205 | 9.0 | 15.0 | 0.00 | 0.00 | 0.00 | 35 | 1005.3 |
| 20260504040209 | 69 | 197 | 10.0 | 15.0 | 0.00 | 0.00 | 0.00 | 35 | 1005.4 |
| 20260504035541 | 69 | 180 | 10.0 | 15.0 | 0.00 | 0.00 | 0.00 | 34 | 1005.5 |
| 20260504035024 | 69 | 173 | 10.0 | 17.0 | 0.00 | 0.00 | 0.00 | 34 | 1005.5 |
| 20260504034638 | 69 | 194 | 11.0 | 17.0 | 0.00 | 0.00 | 0.00 | 34 | 1005.6 |
| 20260504034020 | 70 | 167 | 9.0 | 14.0 | 0.00 | 0.00 | 0.00 | 34 | 1005.6 |
| 20260504033526 | 70 | 173 | 9.0 | 16.0 | 0.00 | 0.00 | 0.00 | 33 | 1005.7 |
| 20260504033122 | 70 | 175 | 9.0 | 16.0 | 0.00 | 0.00 | 0.00 | 33 | 1005.6 |
| 20260504032544 | 71 | 159 | 10.0 | 17.0 | 0.00 | 0.00 | 0.00 | 32 | 1005.6 |
| 20260504032038 | 71 | 161 | 10.0 | 14.0 | 0.00 | 0.00 | 0.00 | 32 | 1005.6 |
| 20260504031618 | 71 | 181 | 11.0 | 14.0 | 0.00 | 0.00 | 0.00 | 32 | 1005.5 |
| 20260504031026 | 71 | 165 | 9.0 | 14.0 | 0.00 | 0.00 | 0.00 | 31 | 1005.5 |
| 20260504030532 | 71 | 178 | 9.0 | 14.0 | 0.00 | 0.00 | 0.00 | 31 | 1005.5 |
| 20260504030202 | 71 | 163 | 10.0 | 15.0 | 0.00 | 0.00 | 0.00 | 31 | 1005.5 |
| 20260504025520 | 71 | 185 | 10.0 | 17.0 | 0.00 | 0.00 | 0.00 | 31 | 1005.4 |
| 20260504025039 | 71 | 163 | 11.0 | 15.0 | 0.00 | 0.00 | 0.00 | 30 | 1005.4 |
| 20260504024650 | 72 | 155 | 10.0 | 16.0 | 0.00 | 0.00 | 0.00 | 30 | 1005.4 |
| 20260504024038 | 72 | 186 | 10.0 | 16.0 | 0.00 | 0.00 | 0.00 | 30 | 1005.3 |
| 20260504023539 | 72 | 69 | 9.0 | 14.0 | 0.00 | 0.00 | 0.00 | 30 | 1005.4 |
| 20260504023143 | 72 | 69 | 9.0 | 14.0 | 0.00 | 0.00 | 0.00 | 29 | 1005.4 |
| 20260504022531 | 72 | 83 | 8.0 | 14.0 | 0.00 | 0.00 | 0.00 | 29 | 1005.4 |
| 20260504022041 | 72 | 73 | 8.0 | 14.0 | 0.00 | 0.00 | 0.00 | 28 | 1005.3 |
| 20260504021639 | 72 | 76 | 8.0 | 14.0 | 0.00 | 0.00 | 0.00 | 28 | 1005.3 |
| 20260504021024 | 73 | 82 | 10.0 | 15.0 | 0.00 | 0.00 | 0.00 | 28 | 1005.3 |
| 20260504020540 | 73 | 109 | 11.0 | 15.0 | 0.00 | 0.00 | 0.00 | 27 | 1005.3 |
| 20260504020149 | 73 | 115 | 10.0 | 15.0 | 0.00 | 0.00 | 0.00 | 27 | 1005.2 |
| 20260504015519 | 73 | 360 | 10.0 | 15.0 | 0.00 | 0.00 | 0.00 | 27 | 1005.2 |
| 20260504015017 | 73 | 360 | 9.0 | 13.0 | 0.00 | 0.00 | 0.00 | 27 | 1005.2 |
| 20260504014646 | 73 | 97 | 9.0 | 13.0 | 0.00 | 0.00 | 0.00 | 27 | 1005.1 |
| 20260504014021 | 74 | 360 | 9.0 | 12.0 | 0.00 | 0.00 | 0.00 | 27 | 1005.1 |
| 20260504013524 | 74 | 360 | 8.0 | 12.0 | 0.00 | 0.00 | 0.00 | 27 | 1005.1 |
| 20260504013154 | 74 | 219 | 8.0 | 12.0 | 0.00 | 0.00 | 0.00 | 27 | 1005.0 |
| 20260504012522 | 74 | 169 | 9.0 | 11.0 | 0.00 | 0.00 | 0.00 | 27 | 1005.1 |
| 20260504012046 | 75 | 167 | 7.0 | 10.0 | 0.00 | 0.00 | 0.00 | 27 | 1005.3 |
| 20260504011652 | 75 | 128 | 7.0 | 10.0 | 0.00 | 0.00 | 0.00 | 26 | 1005.2 |